Time,TemperatureF,DewpointF,PressureIn,WindDirection,WindDirectionDegrees,WindSpeedMPH,WindSpeedGustMPH,Humidity,HourlyPrecipIn,Conditions,Clouds,dailyrainin,SoftwareType,DateUTC
2013-02-02 00:01:00,57.0,48.4,30.21,NW,322,11.5,11.5,73,0.00,,OVC,0.00,WeatherDisplay:10.37,2013-02-02 05:01:00,
2013-02-02 00:06:00,57.0,48.4,30.21,NNW,328,11.5,11.5,73,0.00,,OVC,0.00,WeatherDisplay:10.37,2013-02-02 05:06:00,
2013-02-02 00:11:00,57.0,48.4,30.21,NW,324,0.0,0.0,73,0.00,,OVC,0.00,WeatherDisplay:10.37,2013-02-02 05:11:00,
2013-02-02 00:16:00,56.9,48.3,30.20,NW,325,0.0,0.0,73,0.00,,OVC,0.00,WeatherDisplay:10.37,2013-02-02 05:16:00,
2013-02-02 00:21:00,56.9,48.3,30.20,NNW,328,0.0,0.0,73,0.00,,OVC,0.00,WeatherDisplay:10.37,2013-02-02 05:21:00,
2013-02-02 00:26:00,56.9,48.3,30.20,NNW,334,8.0,8.0,73,0.00,,OVC,0.00,WeatherDisplay:10.37,2013-02-02 05:26:00,
2013-02-02 00:31:00,56.9,48.3,30.20,NNW,333,0.0,0.0,73,0.00,,OVC,0.00,WeatherDisplay:10.37,2013-02-02 05:31:00,
2013-02-02 00:36:00,56.9,48.3,30.20,NNW,331,0.0,0.0,73,0.00,,OVC,0.00,WeatherDisplay:10.37,2013-02-02 05:36:00,
2013-02-02 00:41:00,56.9,48.3,30.20,NNW,332,0.0,0.0,73,0.00,,OVC,0.00,WeatherDisplay:10.37,2013-02-02 05:41:00,
2013-02-02 00:46:00,56.9,48.3,30.20,NNW,331,0.0,0.0,73,0.00,,OVC,0.00,WeatherDisplay:10.37,2013-02-02 05:46:00,
2013-02-02 00:51:00,56.7,48.1,30.20,NW,319,0.0,0.0,73,0.00,,OVC,0.00,WeatherDisplay:10.37,2013-02-02 05:51:00,
2013-02-02 00:56:00,56.6,48.0,30.20,NW,323,0.0,0.0,73,0.00,,OVC,0.00,WeatherDisplay:10.37,2013-02-02 05:56:00,
2013-02-02 01:01:00,56.6,48.0,30.19,NW,322,0.0,0.0,73,0.00,,OVC,0.00,WeatherDisplay:10.37,2013-02-02 06:01:00,
2013-02-02 01:06:00,56.6,48.0,30.19,NW,322,0.0,0.0,73,0.00,,OVC,0.00,WeatherDisplay:10.37,2013-02-02 06:06:00,
2013-02-02 01:11:00,56.7,48.1,30.19,NW,323,0.0,0.0,73,0.00,,OVC,0.00,WeatherDisplay:10.37,2013-02-02 06:11:00,
2013-02-02 01:16:00,56.7,48.1,30.19,NW,323,0.0,0.0,73,0.00,,OVC,0.00,WeatherDisplay:10.37,2013-02-02 06:16:00,
2013-02-02 01:21:00,56.7,48.1,30.19,NW,323,0.0,0.0,73,0.00,,OVC,0.00,WeatherDisplay:10.37,2013-02-02 06:21:00,
2013-02-02 01:26:00,56.7,48.1,30.19,NW,323,0.0,0.0,73,0.00,,OVC,0.00,WeatherDisplay:10.37,2013-02-02 06:26:00,
2013-02-02 01:31:00,56.6,48.0,30.19,NW,323,0.0,0.0,73,0.00,,OVC,0.00,WeatherDisplay:10.37,2013-02-02 06:31:00,
2013-02-02 01:36:00,56.6,48.0,30.19,NW,323,0.0,0.0,73,0.00,,OVC,0.00,WeatherDisplay:10.37,2013-02-02 06:36:00,
2013-02-02 01:41:00,56.6,48.0,30.19,NW,325,2.3,0.0,73,0.00,,OVC,0.00,WeatherDisplay:10.37,2013-02-02 06:41:00,
2013-02-02 01:46:00,56.6,47.7,30.19,NW,325,0.0,0.0,72,0.00,,OVC,0.00,WeatherDisplay:10.37,2013-02-02 06:46:00,
2013-02-02 01:51:00,56.7,47.4,30.19,NW,325,0.0,0.0,71,0.00,,OVC,0.00,WeatherDisplay:10.37,2013-02-02 06:51:00,
2013-02-02 01:56:00,56.7,47.4,30.19,NW,325,0.0,0.0,71,0.00,,OVC,0.00,WeatherDisplay:10.37,2013-02-02 06:56:00,
2013-02-02 02:01:00,56.7,47.4,30.18,NW,326,0.0,0.0,71,0.00,,OVC,0.00,WeatherDisplay:10.37,2013-02-02 07:01:00,
2013-02-02 02:06:00,56.7,47.4,30.18,NNW,327,0.0,0.0,71,0.00,,OVC,0.00,WeatherDisplay:10.37,2013-02-02 07:06:00,
2013-02-02 02:11:00,56.6,46.9,30.18,NNW,327,0.0,0.0,70,0.00,,OVC,0.00,WeatherDisplay:10.37,2013-02-02 07:11:00,
2013-02-02 02:16:00,56.6,46.9,30.18,NNW,328,0.0,0.0,70,0.00,,OVC,0.00,WeatherDisplay:10.37,2013-02-02 07:16:00,
2013-02-02 02:21:00,56.6,46.9,30.18,NNW,329,0.0,0.0,70,0.00,,OVC,0.00,WeatherDisplay:10.37,2013-02-02 07:21:00,
2013-02-02 02:26:00,56.6,46.5,30.18,NNW,331,0.0,0.0,69,0.00,,OVC,0.00,WeatherDisplay:10.37,2013-02-02 07:26:00,
2013-02-02 02:31:00,56.5,46.4,30.18,NNW,330,4.6,0.0,69,0.00,,OVC,0.00,WeatherDisplay:10.37,2013-02-02 07:31:00,
2013-02-02 02:36:00,56.5,46.1,30.18,NNW,327,0.0,0.0,68,0.00,,OVC,0.00,WeatherDisplay:10.37,2013-02-02 07:36:00,
2013-02-02 02:41:00,56.3,45.9,30.18,NW,326,0.0,0.0,68,0.00,,OVC,0.00,WeatherDisplay:10.37,2013-02-02 07:41:00,
2013-02-02 02:46:00,56.3,45.5,30.18,NW,326,0.0,0.0,67,0.00,,OVC,0.00,WeatherDisplay:10.37,2013-02-02 07:46:00,
2013-02-02 02:51:00,56.2,45.4,30.18,NNW,328,0.0,0.0,67,0.00,,OVC,0.00,WeatherDisplay:10.37,2013-02-02 07:51:00,
2013-02-02 02:56:00,56.0,45.2,30.18,NNW,329,0.0,0.0,67,0.00,,OVC,0.00,WeatherDisplay:10.37,2013-02-02 07:56:00,
2013-02-02 03:01:00,55.9,45.1,30.18,NNW,329,9.2,9.2,67,0.00,,OVC,0.00,WeatherDisplay:10.37,2013-02-02 08:01:00,
2013-02-02 03:06:00,55.9,44.7,30.18,NNW,328,0.0,0.0,66,0.00,,OVC,0.00,WeatherDisplay:10.37,2013-02-02 08:06:00,
2013-02-02 03:11:00,55.9,44.3,30.18,NNW,339,5.8,5.8,65,0.00,,OVC,0.00,WeatherDisplay:10.37,2013-02-02 08:11:00,
2013-02-02 03:16:00,55.9,43.9,30.18,NNW,338,0.0,0.0,64,0.00,,OVC,0.00,WeatherDisplay:10.37,2013-02-02 08:16:00,
2013-02-02 03:21:00,56.0,44.0,30.18,NNW,338,8.1,0.0,64,0.00,,OVC,0.00,WeatherDisplay:10.37,2013-02-02 08:21:00,
2013-02-02 03:26:00,56.0,43.6,30.18,NNW,345,11.5,11.5,63,0.00,,OVC,0.00,WeatherDisplay:10.37,2013-02-02 08:26:00,
2013-02-02 03:31:00,56.0,42.7,30.18,NNW,339,11.5,11.5,61,0.00,,OVC,0.00,WeatherDisplay:10.37,2013-02-02 08:31:00,
2013-02-02 03:36:00,56.0,42.7,30.18,NNW,338,14.0,14.0,61,0.00,,OVC,0.00,WeatherDisplay:10.37,2013-02-02 08:36:00,
2013-02-02 03:41:00,56.0,42.3,30.18,NW,325,0.0,0.0,60,0.00,,OVC,0.00,WeatherDisplay:10.37,2013-02-02 08:41:00,
2013-02-02 03:46:00,55.9,42.2,30.18,NNW,340,2.0,3.5,60,0.00,,OVC,0.00,WeatherDisplay:10.37,2013-02-02 08:46:00,
2013-02-02 03:51:00,55.7,41.6,30.18,NNW,337,14.0,14.0,59,0.00,,OVC,0.00,WeatherDisplay:10.37,2013-02-02 08:51:00,
2013-02-02 03:56:00,55.9,40.9,30.18,NW,325,9.2,0.0,57,0.00,,OVC,0.00,WeatherDisplay:10.37,2013-02-02 08:56:00,
2013-02-02 04:01:00,55.9,40.4,30.18,NNW,327,11.5,11.5,56,0.00,CLR,OVC,0.00,WeatherDisplay:10.37,2013-02-02 09:01:00,
2013-02-02 04:07:00,55.7,40.2,30.18,NNW,339,0.0,3.1,56,0.00,CLR,OVC,0.00,WeatherDisplay:10.37,2013-02-02 09:07:00,
2013-02-02 04:12:00,55.7,40.2,30.18,NNW,331,16.1,16.1,56,0.00,CLR,OVC,0.00,WeatherDisplay:10.37,2013-02-02 09:12:00,
2013-02-02 04:17:00,55.7,38.8,30.18,NW,325,19.6,19.6,53,0.00,CLR,OVC,0.00,WeatherDisplay:10.37,2013-02-02 09:17:00,
2013-02-02 04:22:00,55.9,38.5,30.18,NNW,329,11.5,11.5,52,0.00,CLR,OVC,0.00,WeatherDisplay:10.37,2013-02-02 09:22:00,
2013-02-02 04:27:00,56.0,38.1,30.18,NNW,347,12.7,12.7,51,0.00,CLR,OVC,0.00,WeatherDisplay:10.37,2013-02-02 09:27:00,
2013-02-02 04:32:00,56.0,37.1,30.18,NNW,338,12.7,12.7,49,0.00,CLR,OVC,0.00,WeatherDisplay:10.37,2013-02-02 09:32:00,
2013-02-02 04:37:00,56.0,37.1,30.18,NNW,334,15.0,15.0,49,0.00,CLR,OVC,0.00,WeatherDisplay:10.37,2013-02-02 09:37:00,
2013-02-02 04:42:00,55.9,37.0,30.18,NNW,330,13.8,13.8,49,0.00,CLR,OVC,0.00,WeatherDisplay:10.37,2013-02-02 09:42:00,
2013-02-02 04:47:00,55.9,37.0,30.18,NW,324,0.0,0.0,49,0.00,CLR,OVC,0.00,WeatherDisplay:10.37,2013-02-02 09:47:00,
2013-02-02 04:52:00,55.7,36.8,30.18,NW,324,0.0,0.0,49,0.00,CLR,OVC,0.00,WeatherDisplay:10.37,2013-02-02 09:52:00,
2013-02-02 04:57:00,55.6,36.7,30.18,NW,326,0.0,0.0,49,0.00,CLR,OVC,0.00,WeatherDisplay:10.37,2013-02-02 09:57:00,
2013-02-02 05:02:00,55.4,37.1,30.18,NW,326,0.0,0.0,50,0.00,,OVC,0.00,WeatherDisplay:10.37,2013-02-02 10:02:00,
2013-02-02 05:07:00,55.1,36.8,30.18,NW,314,0.0,0.0,50,0.00,,OVC,0.00,WeatherDisplay:10.37,2013-02-02 10:07:00,
2013-02-02 05:12:00,55.0,37.2,30.18,NW,317,0.0,0.0,51,0.00,,OVC,0.00,WeatherDisplay:10.37,2013-02-02 10:12:00,
2013-02-02 05:17:00,54.8,37.0,30.18,NW,320,0.0,0.0,51,0.00,,OVC,0.00,WeatherDisplay:10.37,2013-02-02 10:17:00,
2013-02-02 05:22:00,54.7,36.9,30.18,NW,321,0.0,0.0,51,0.00,,OVC,0.00,WeatherDisplay:10.37,2013-02-02 10:22:00,
2013-02-02 05:27:00,54.5,37.2,30.18,NW,320,0.0,0.0,52,0.00,,OVC,0.00,WeatherDisplay:10.37,2013-02-02 10:27:00,
2013-02-02 05:32:00,54.4,37.1,30.18,NW,321,0.0,0.0,52,0.00,,OVC,0.00,WeatherDisplay:10.37,2013-02-02 10:32:00,
2013-02-02 05:37:00,54.2,36.9,30.18,NW,321,0.0,0.0,52,0.00,,OVC,0.00,WeatherDisplay:10.37,2013-02-02 10:37:00,
2013-02-02 05:42:00,54.1,37.3,30.18,NW,320,0.0,0.0,53,0.00,,OVC,0.00,WeatherDisplay:10.37,2013-02-02 10:42:00,
2013-02-02 05:47:00,53.8,37.1,30.18,NW,320,0.0,0.0,53,0.00,,OVC,0.00,WeatherDisplay:10.37,2013-02-02 10:47:00,
2013-02-02 05:52:00,53.6,36.9,30.18,NW,321,0.0,0.0,53,0.00,,OVC,0.00,WeatherDisplay:10.37,2013-02-02 10:52:00,
2013-02-02 05:57:00,53.5,37.3,30.18,NW,321,0.0,0.0,54,0.00,,OVC,0.00,WeatherDisplay:10.37,2013-02-02 10:57:00,
2013-02-02 06:02:00,53.5,37.3,30.19,NW,321,0.0,0.0,54,0.00,,OVC,0.00,WeatherDisplay:10.37,2013-02-02 11:02:00,
2013-02-02 06:07:00,53.3,37.5,30.19,NW,320,0.0,0.0,55,0.00,,OVC,0.00,WeatherDisplay:10.37,2013-02-02 11:07:00,
2013-02-02 06:12:00,53.2,37.9,30.19,NW,319,0.0,0.0,56,0.00,,OVC,0.00,WeatherDisplay:10.37,2013-02-02 11:12:00,
2013-02-02 06:17:00,53.2,37.9,30.20,WNW,303,3.5,3.5,56,0.00,,OVC,0.00,WeatherDisplay:10.37,2013-02-02 11:17:00,
2013-02-02 06:22:00,53.1,37.8,30.20,NW,309,0.0,0.0,56,0.00,,OVC,0.00,WeatherDisplay:10.37,2013-02-02 11:22:00,
2013-02-02 06:27:00,53.1,37.8,30.20,NW,315,0.0,0.0,56,0.00,,OVC,0.00,WeatherDisplay:10.37,2013-02-02 11:27:00,
2013-02-02 06:32:00,53.1,38.3,30.21,NW,318,0.0,0.0,57,0.00,,OVC,0.00,WeatherDisplay:10.37,2013-02-02 11:32:00,
2013-02-02 06:37:00,53.1,38.3,30.21,NW,318,0.0,0.0,57,0.00,,OVC,0.00,WeatherDisplay:10.37,2013-02-02 11:37:00,
2013-02-02 06:42:00,53.1,38.7,30.21,NW,314,6.9,6.9,58,0.00,,OVC,0.00,WeatherDisplay:10.37,2013-02-02 11:42:00,
2013-02-02 06:47:00,53.1,38.7,30.21,NNW,328,11.5,0.0,58,0.00,,OVC,0.00,WeatherDisplay:10.37,2013-02-02 11:47:00,
2013-02-02 06:52:00,53.2,38.4,30.21,NNW,327,11.5,11.5,57,0.00,,OVC,0.00,WeatherDisplay:10.37,2013-02-02 11:52:00,
2013-02-02 06:57:00,53.3,38.0,30.21,NW,321,12.7,12.7,56,0.00,,OVC,0.00,WeatherDisplay:10.37,2013-02-02 11:57:00,
2013-02-02 07:02:00,53.5,38.2,30.21,NW,317,11.5,11.5,56,0.00,CLR,OVC,0.00,WeatherDisplay:10.37,2013-02-02 12:02:00,
2013-02-02 07:07:00,53.5,38.2,30.21,NW,317,0.0,0.0,56,0.00,CLR,OVC,0.00,WeatherDisplay:10.37,2013-02-02 12:07:00,
2013-02-02 07:12:00,53.6,37.8,30.21,NNW,327,12.7,12.7,55,0.00,CLR,OVC,0.00,WeatherDisplay:10.37,2013-02-02 12:12:00,
2013-02-02 07:17:00,53.6,37.8,30.22,NNW,335,0.0,0.0,55,0.00,CLR,OVC,0.00,WeatherDisplay:10.37,2013-02-02 12:17:00,
2013-02-02 07:22:00,53.8,38.0,30.22,NNW,330,9.2,9.2,55,0.00,CLR,OVC,0.00,WeatherDisplay:10.37,2013-02-02 12:22:00,
2013-02-02 07:27:00,53.9,37.6,30.22,NW,321,11.5,11.5,54,0.00,CLR,OVC,0.00,WeatherDisplay:10.37,2013-02-02 12:27:00,
2013-02-02 07:32:00,53.9,37.6,30.22,NW,321,0.0,0.0,54,0.00,CLR,OVC,0.00,WeatherDisplay:10.37,2013-02-02 12:32:00,
2013-02-02 07:37:00,53.9,37.6,30.22,NW,323,6.9,6.9,54,0.00,CLR,OVC,0.00,WeatherDisplay:10.37,2013-02-02 12:37:00,
2013-02-02 07:42:00,53.9,37.6,30.22,NNW,331,0.0,0.0,54,0.00,CLR,OVC,0.00,WeatherDisplay:10.37,2013-02-02 12:42:00,
2013-02-02 07:47:00,53.9,37.6,30.22,NNW,333,10.4,0.0,54,0.00,CLR,OVC,0.00,WeatherDisplay:10.37,2013-02-02 12:47:00,
2013-02-02 07:52:00,54.1,38.3,30.22,NNW,329,0.0,0.0,55,0.00,CLR,OVC,0.00,WeatherDisplay:10.37,2013-02-02 12:52:00,
2013-02-02 07:57:00,54.2,37.9,30.22,NNW,328,0.0,0.0,54,0.00,CLR,OVC,0.00,WeatherDisplay:10.37,2013-02-02 12:57:00,
2013-02-02 08:02:00,54.5,37.7,30.22,NNW,329,11.5,11.5,53,0.00,CLR,OVC,0.00,WeatherDisplay:10.37,2013-02-02 13:02:00,
2013-02-02 08:07:00,54.8,38.0,30.22,NNW,329,10.4,10.4,53,0.00,CLR,OVC,0.00,WeatherDisplay:10.37,2013-02-02 13:07:00,
2013-02-02 08:12:00,55.4,38.1,30.22,NNW,342,12.0,12.0,52,0.00,CLR,OVC,0.00,WeatherDisplay:10.37,2013-02-02 13:12:00,
2013-02-02 08:17:00,55.9,37.5,30.22,North,5,16.1,16.1,50,0.00,CLR,OVC,0.00,WeatherDisplay:10.37,2013-02-02 13:17:00,
2013-02-02 08:22:00,56.2,38.3,30.22,North,360,13.8,13.8,51,0.00,CLR,OVC,0.00,WeatherDisplay:10.37,2013-02-02 13:22:00,
2013-02-02 08:27:00,56.6,38.7,30.22,North,360,0.0,0.0,51,0.00,CLR,OVC,0.00,WeatherDisplay:10.37,2013-02-02 13:27:00,
2013-02-02 08:32:00,57.2,39.2,30.23,NNW,344,11.0,11.0,51,0.00,CLR,OVC,0.00,WeatherDisplay:10.37,2013-02-02 13:32:00,
2013-02-02 08:37:00,57.8,39.3,30.23,NW,326,18.4,18.4,50,0.00,CLR,OVC,0.00,WeatherDisplay:10.37,2013-02-02 13:37:00,
2013-02-02 08:42:00,58.6,40.5,30.23,NNW,329,13.0,13.0,51,0.00,CLR,OVC,0.00,WeatherDisplay:10.37,2013-02-02 13:42:00,
2013-02-02 08:47:00,59.2,40.6,30.23,NW,324,17.3,17.3,50,0.00,CLR,OVC,0.00,WeatherDisplay:10.37,2013-02-02 13:47:00,
2013-02-02 08:52:00,59.6,41.4,30.23,NW,326,8.1,0.0,51,0.00,CLR,OVC,0.00,WeatherDisplay:10.37,2013-02-02 13:52:00,
2013-02-02 08:57:00,59.8,41.6,30.23,NNW,327,11.5,11.5,51,0.00,CLR,OVC,0.00,WeatherDisplay:10.37,2013-02-02 13:57:00,
2013-02-02 09:02:00,60.1,42.4,30.23,North,355,9.2,9.2,52,0.00,CLR,OVC,0.00,WeatherDisplay:10.37,2013-02-02 14:02:00,
2013-02-02 09:07:00,60.5,42.8,30.23,North,360,12.7,0.0,52,0.00,CLR,OVC,0.00,WeatherDisplay:10.37,2013-02-02 14:07:00,
2013-02-02 09:12:00,61.0,43.7,30.23,NNW,333,0.0,0.0,53,0.00,CLR,OVC,0.00,WeatherDisplay:10.37,2013-02-02 14:12:00,
2013-02-02 09:17:00,61.6,44.8,30.23,NW,319,0.0,0.4,54,0.00,CLR,OVC,0.00,WeatherDisplay:10.37,2013-02-02 14:17:00,
2013-02-02 09:22:00,62.3,44.9,30.23,NNW,338,0.0,0.0,53,0.00,CLR,OVC,0.00,WeatherDisplay:10.37,2013-02-02 14:22:00,
2013-02-02 09:28:00,63.1,45.7,30.23,North,355,0.0,0.0,53,0.00,CLR,OVC,0.00,WeatherDisplay:10.37,2013-02-02 14:28:00,
2013-02-02 09:33:00,63.9,46.4,30.23,North,360,0.0,0.0,53,0.00,CLR,OVC,0.00,WeatherDisplay:10.37,2013-02-02 14:33:00,
2013-02-02 09:38:00,64.5,46.0,30.23,North,10,15.0,15.0,51,0.00,CLR,OVC,0.00,WeatherDisplay:10.37,2013-02-02 14:38:00,
2013-02-02 09:43:00,65.0,46.9,30.23,NNW,333,0.0,0.0,52,0.00,CLR,OVC,0.00,WeatherDisplay:10.37,2013-02-02 14:43:00,
2013-02-02 09:47:00,65.5,47.4,30.23,North,360,11.0,11.0,52,0.00,CLR,OVC,0.00,WeatherDisplay:10.37,2013-02-02 14:47:00,
2013-02-02 09:53:00,66.0,47.3,30.23,NNW,338,0.0,0.0,51,0.00,CLR,OVC,0.00,WeatherDisplay:10.37,2013-02-02 14:53:00,
2013-02-02 09:58:00,66.6,47.9,30.23,NNE,14,0.0,0.0,51,0.00,CLR,OVC,0.00,WeatherDisplay:10.37,2013-02-02 14:58:00,
2013-02-02 10:03:00,67.3,48.0,30.23,NNE,19,0.0,0.0,50,0.00,,OVC,0.00,WeatherDisplay:10.37,2013-02-02 15:03:00,
2013-02-02 10:08:00,67.4,48.6,30.23,NE,35,0.0,0.0,51,0.00,,OVC,0.00,WeatherDisplay:10.37,2013-02-02 15:08:00,
2013-02-02 10:13:00,67.8,47.9,30.23,NNE,31,0.0,0.0,49,0.00,,OVC,0.00,WeatherDisplay:10.37,2013-02-02 15:13:00,
2013-02-02 10:18:00,68.3,49.5,30.22,ENE,59,0.0,0.0,51,0.00,,OVC,0.00,WeatherDisplay:10.37,2013-02-02 15:18:00,
2013-02-02 10:23:00,68.9,50.0,30.22,ENE,65,0.0,0.0,51,0.00,,OVC,0.00,WeatherDisplay:10.37,2013-02-02 15:23:00,
2013-02-02 10:28:00,69.3,49.9,30.22,ENE,71,0.0,0.3,50,0.00,,OVC,0.00,WeatherDisplay:10.37,2013-02-02 15:28:00,
2013-02-02 10:33:00,69.4,50.5,30.22,NE,55,0.0,0.0,51,0.00,,OVC,0.00,WeatherDisplay:10.37,2013-02-02 15:33:00,
2013-02-02 10:38:00,69.8,50.9,30.22,NE,54,0.0,0.0,51,0.00,,OVC,0.00,WeatherDisplay:10.37,2013-02-02 15:38:00,
2013-02-02 10:43:00,69.6,49.6,30.22,ENE,61,1.1,1.1,49,0.00,,OVC,0.00,WeatherDisplay:10.37,2013-02-02 15:43:00,
2013-02-02 10:48:00,69.8,50.3,30.21,NE,51,2.3,2.3,50,0.00,,OVC,0.00,WeatherDisplay:10.37,2013-02-02 15:48:00,
2013-02-02 10:53:00,69.9,50.4,30.21,SE,141,0.0,0.0,50,0.00,,OVC,0.00,WeatherDisplay:10.37,2013-02-02 15:53:00,
2013-02-02 10:58:00,70.6,50.5,30.21,ENE,57,2.3,0.0,49,0.00,,OVC,0.00,WeatherDisplay:10.37,2013-02-02 15:58:00,
2013-02-02 11:03:00,70.9,50.2,30.20,ENE,76,8.1,8.1,48,0.00,,OVC,0.00,WeatherDisplay:10.37,2013-02-02 16:03:00,
2013-02-02 11:08:00,70.9,50.2,30.20,ENE,64,0.0,0.0,48,0.00,,OVC,0.00,WeatherDisplay:10.37,2013-02-02 16:08:00,
2013-02-02 11:13:00,71.5,49.6,30.20,East,83,19.6,19.6,46,0.00,,OVC,0.00,WeatherDisplay:10.37,2013-02-02 16:13:00,
2013-02-02 11:18:00,71.8,49.9,30.20,NE,55,11.5,11.5,46,0.00,,OVC,0.00,WeatherDisplay:10.37,2013-02-02 16:18:00,
2013-02-02 11:23:00,71.6,49.7,30.20,ENE,73,2.3,0.0,46,0.00,,OVC,0.00,WeatherDisplay:10.37,2013-02-02 16:23:00,
2013-02-02 11:28:00,72.3,49.8,30.20,ENE,73,1.1,0.0,45,0.00,,OVC,0.00,WeatherDisplay:10.37,2013-02-02 16:28:00,
2013-02-02 11:33:00,72.5,49.3,30.19,ENE,67,8.1,8.1,44,0.00,,OVC,0.00,WeatherDisplay:10.37,2013-02-02 16:33:00,
2013-02-02 11:38:00,71.6,49.1,30.19,ENE,57,6.9,6.9,45,0.00,,OVC,0.00,WeatherDisplay:10.37,2013-02-02 16:38:00,
2013-02-02 11:43:00,71.3,48.9,30.19,SE,136,12.7,12.7,45,0.00,,OVC,0.00,WeatherDisplay:10.37,2013-02-02 16:43:00,
2013-02-02 11:48:00,71.5,50.2,30.19,ENE,67,10.4,10.4,47,0.00,,OVC,0.00,WeatherDisplay:10.37,2013-02-02 16:48:00,
2013-02-02 11:53:00,71.1,49.8,30.19,ENE,68,10.0,10.0,47,0.00,,OVC,0.00,WeatherDisplay:10.37,2013-02-02 16:53:00,
2013-02-02 11:58:00,70.4,48.6,30.19,ENE,74,10.4,10.4,46,0.00,,OVC,0.00,WeatherDisplay:10.37,2013-02-02 16:58:00,
2013-02-02 12:03:00,70.8,50.7,30.18,North,11,24.2,24.2,49,0.00,,OVC,0.00,WeatherDisplay:10.37,2013-02-02 17:03:00,
2013-02-02 12:08:00,71.3,49.4,30.18,NE,55,19.6,19.6,46,0.00,,OVC,0.00,WeatherDisplay:10.37,2013-02-02 17:08:00,
2013-02-02 12:13:00,72.0,49.5,30.18,NNE,24,17.3,17.3,45,0.00,,OVC,0.00,WeatherDisplay:10.37,2013-02-02 17:13:00,
2013-02-02 12:18:00,72.8,50.8,30.17,SSE,168,6.9,6.9,46,0.00,,OVC,0.00,WeatherDisplay:10.37,2013-02-02 17:18:00,
2013-02-02 12:23:00,73.0,50.4,30.17,ESE,116,2.0,2.0,45,0.00,,OVC,0.00,WeatherDisplay:10.37,2013-02-02 17:23:00,
2013-02-02 12:28:00,72.7,50.1,30.17,ESE,110,9.2,0.0,45,0.00,,OVC,0.00,WeatherDisplay:10.37,2013-02-02 17:28:00,
2013-02-02 12:33:00,72.7,50.1,30.17,ESE,107,3.5,3.5,45,0.00,,OVC,0.00,WeatherDisplay:10.37,2013-02-02 17:33:00,
2013-02-02 12:38:00,72.8,50.8,30.17,SSE,148,11.5,11.5,46,0.00,,OVC,0.00,WeatherDisplay:10.37,2013-02-02 17:38:00,
2013-02-02 12:43:00,72.8,51.4,30.17,NE,38,12.7,12.7,47,0.00,,OVC,0.00,WeatherDisplay:10.37,2013-02-02 17:43:00,
2013-02-02 12:48:00,73.0,50.4,30.16,SE,140,11.5,11.5,45,0.00,,OVC,0.00,WeatherDisplay:10.37,2013-02-02 17:48:00,
2013-02-02 12:53:00,73.2,50.0,30.16,ENE,62,18.4,18.4,44,0.00,,OVC,0.00,WeatherDisplay:10.37,2013-02-02 17:53:00,
2013-02-02 12:58:00,72.7,50.7,30.16,East,100,14.0,14.0,46,0.00,,OVC,0.00,WeatherDisplay:10.37,2013-02-02 17:58:00,
2013-02-02 13:03:00,72.7,51.9,30.16,ENE,59,9.2,0.0,48,0.00,,OVC,0.00,WeatherDisplay:10.37,2013-02-02 18:03:00,
2013-02-02 13:08:00,72.7,50.7,30.16,ENE,62,24.2,24.2,46,0.00,,OVC,0.00,WeatherDisplay:10.37,2013-02-02 18:08:00,
2013-02-02 13:13:00,72.1,50.2,30.16,NNE,18,23.0,23.0,46,0.00,,OVC,0.00,WeatherDisplay:10.37,2013-02-02 18:13:00,
2013-02-02 13:18:00,72.5,51.1,30.15,NE,42,10.4,0.0,47,0.00,,OVC,0.00,WeatherDisplay:10.37,2013-02-02 18:18:00,
2013-02-02 13:23:00,72.0,51.2,30.15,NE,35,13.8,13.8,48,0.00,,OVC,0.00,WeatherDisplay:10.37,2013-02-02 18:23:00,
2013-02-02 13:28:00,72.0,50.7,30.15,SE,142,0.0,1.2,47,0.00,,OVC,0.00,WeatherDisplay:10.37,2013-02-02 18:28:00,
2013-02-02 13:33:00,72.7,49.5,30.14,ENE,67,10.4,10.4,44,0.00,,OVC,0.00,WeatherDisplay:10.37,2013-02-02 18:33:00,
2013-02-02 13:38:00,72.0,48.9,30.14,NE,55,21.9,21.9,44,0.00,,OVC,0.00,WeatherDisplay:10.37,2013-02-02 18:38:00,
2013-02-02 13:43:00,72.1,48.4,30.14,ENE,71,13.8,13.8,43,0.00,,OVC,0.00,WeatherDisplay:10.37,2013-02-02 18:43:00,
2013-02-02 13:48:00,72.7,50.1,30.13,North,11,11.5,11.5,45,0.00,,OVC,0.00,WeatherDisplay:10.37,2013-02-02 18:48:00,
2013-02-02 13:53:00,72.7,50.1,30.13,ESE,122,18.4,18.4,45,0.00,,OVC,0.00,WeatherDisplay:10.37,2013-02-02 18:53:00,
2013-02-02 13:58:00,73.3,50.1,30.13,ESE,120,3.5,3.5,44,0.00,,OVC,0.00,WeatherDisplay:10.37,2013-02-02 18:58:00,
2013-02-02 14:03:00,73.2,48.7,30.13,North,5,21.9,21.9,42,0.00,,OVC,0.00,WeatherDisplay:10.37,2013-02-02 19:03:00,
2013-02-02 14:08:00,72.7,49.5,30.13,NE,46,16.1,16.1,44,0.00,,OVC,0.00,WeatherDisplay:10.37,2013-02-02 19:08:00,
2013-02-02 14:13:00,72.5,48.7,30.13,East,92,16.1,16.1,43,0.00,,OVC,0.00,WeatherDisplay:10.37,2013-02-02 19:13:00,
2013-02-02 14:18:00,72.7,49.5,30.12,ENE,73,0.0,0.0,44,0.00,,OVC,0.00,WeatherDisplay:10.37,2013-02-02 19:18:00,
2013-02-02 14:23:00,72.8,49.6,30.12,ENE,78,2.3,0.0,44,0.00,,OVC,0.00,WeatherDisplay:10.37,2013-02-02 19:23:00,
2013-02-02 14:28:00,73.0,49.8,30.12,NE,45,10.0,10.0,44,0.00,,OVC,0.00,WeatherDisplay:10.37,2013-02-02 19:28:00,
2013-02-02 14:33:00,72.1,50.2,30.12,ENE,68,13.8,13.8,46,0.00,,OVC,0.00,WeatherDisplay:10.37,2013-02-02 19:33:00,
2013-02-02 14:38:00,71.8,49.9,30.12,ENE,67,1.1,0.0,46,0.00,,OVC,0.00,WeatherDisplay:10.37,2013-02-02 19:38:00,
2013-02-02 14:43:00,72.0,50.7,30.12,East,86,0.0,0.0,47,0.00,,OVC,0.00,WeatherDisplay:10.37,2013-02-02 19:43:00,
2013-02-02 14:48:00,72.7,50.1,30.12,ENE,77,0.0,0.0,45,0.00,,OVC,0.00,WeatherDisplay:10.37,2013-02-02 19:48:00,
2013-02-02 14:53:00,73.2,49.4,30.12,SE,127,0.0,0.0,43,0.00,,OVC,0.00,WeatherDisplay:10.37,2013-02-02 19:53:00,
2013-02-02 14:58:00,73.3,50.1,30.12,East,86,0.0,0.0,44,0.00,,OVC,0.00,WeatherDisplay:10.37,2013-02-02 19:58:00,
2013-02-02 15:03:00,72.3,49.8,30.12,ENE,71,0.0,0.0,45,0.00,,OVC,0.00,WeatherDisplay:10.37,2013-02-02 20:03:00,
2013-02-02 15:08:00,72.3,50.4,30.12,ENE,78,11.5,11.5,46,0.00,,OVC,0.00,WeatherDisplay:10.37,2013-02-02 20:08:00,
2013-02-02 15:14:00,72.7,49.5,30.12,NE,51,19.6,19.6,44,0.00,,OVC,0.00,WeatherDisplay:10.37,2013-02-02 20:14:00,
2013-02-02 15:19:00,72.3,50.4,30.12,NNE,27,17.3,17.3,46,0.00,,OVC,0.00,WeatherDisplay:10.37,2013-02-02 20:19:00,
2013-02-02 15:24:00,72.3,50.4,30.12,ENE,67,15.0,15.0,46,0.00,,OVC,0.00,WeatherDisplay:10.37,2013-02-02 20:24:00,
2013-02-02 15:29:00,72.3,50.4,30.12,NE,55,12.0,12.0,46,0.00,,OVC,0.00,WeatherDisplay:10.37,2013-02-02 20:29:00,
2013-02-02 15:34:00,72.5,50.5,30.12,NE,56,4.6,5.4,46,0.00,,OVC,0.00,WeatherDisplay:10.37,2013-02-02 20:34:00,
2013-02-02 15:39:00,73.2,50.6,30.12,East,82,0.0,0.0,45,0.00,,OVC,0.00,WeatherDisplay:10.37,2013-02-02 20:39:00,
2013-02-02 15:44:00,72.8,49.6,30.12,NE,46,13.8,13.8,44,0.00,,OVC,0.00,WeatherDisplay:10.37,2013-02-02 20:44:00,
2013-02-02 15:49:00,72.1,50.8,30.11,ENE,60,8.1,8.1,47,0.00,,OVC,0.00,WeatherDisplay:10.37,2013-02-02 20:49:00,
2013-02-02 15:54:00,72.0,50.7,30.11,ENE,65,11.5,11.5,47,0.00,,OVC,0.00,WeatherDisplay:10.37,2013-02-02 20:54:00,
2013-02-02 15:59:00,71.6,50.9,30.11,ENE,76,3.5,3.5,48,0.00,,OVC,0.00,WeatherDisplay:10.37,2013-02-02 20:59:00,
2013-02-02 16:04:00,71.5,50.8,30.11,ENE,71,0.0,0.0,48,0.00,,OVC,0.00,WeatherDisplay:10.37,2013-02-02 21:04:00,
2013-02-02 16:09:00,71.6,50.3,30.11,ENE,68,0.0,0.0,47,0.00,,OVC,0.00,WeatherDisplay:10.37,2013-02-02 21:09:00,
2013-02-02 16:14:00,71.6,50.3,30.11,ENE,74,8.1,8.1,47,0.00,,OVC,0.00,WeatherDisplay:10.37,2013-02-02 21:14:00,
2013-02-02 16:19:00,71.6,50.9,30.11,SE,130,3.5,3.5,48,0.00,,OVC,0.00,WeatherDisplay:10.37,2013-02-02 21:19:00,
2013-02-02 16:24:00,72.0,50.7,30.11,SE,131,0.0,0.0,47,0.00,,OVC,0.00,WeatherDisplay:10.37,2013-02-02 21:24:00,
2013-02-02 16:29:00,72.3,50.9,30.11,ENE,59,2.0,0.0,47,0.00,,OVC,0.00,WeatherDisplay:10.37,2013-02-02 21:29:00,
2013-02-02 16:34:00,72.5,51.7,30.11,SE,133,0.0,0.0,48,0.00,,OVC,0.00,WeatherDisplay:10.37,2013-02-02 21:34:00,
2013-02-02 16:39:00,72.3,50.9,30.11,SE,132,0.0,0.0,47,0.00,,OVC,0.00,WeatherDisplay:10.37,2013-02-02 21:39:00,
2013-02-02 16:44:00,72.0,51.2,30.11,SE,134,0.0,0.0,48,0.00,,OVC,0.00,WeatherDisplay:10.37,2013-02-02 21:44:00,
2013-02-02 16:49:00,71.8,51.0,30.11,SE,144,5.8,5.8,48,0.00,,OVC,0.00,WeatherDisplay:10.37,2013-02-02 21:49:00,
2013-02-02 16:54:00,71.8,51.0,30.11,SE,140,0.0,0.0,48,0.00,,OVC,0.00,WeatherDisplay:10.37,2013-02-02 21:54:00,
2013-02-02 16:59:00,72.0,51.2,30.11,ENE,72,11.5,11.5,48,0.00,,OVC,0.00,WeatherDisplay:10.37,2013-02-02 21:59:00,
2013-02-02 17:04:00,72.0,51.2,30.11,East,90,0.0,0.0,48,0.00,,OVC,0.00,WeatherDisplay:10.37,2013-02-02 22:04:00,
2013-02-02 17:09:00,72.0,51.2,30.11,East,90,0.0,0.0,48,0.00,,OVC,0.00,WeatherDisplay:10.37,2013-02-02 22:09:00,
2013-02-02 17:14:00,71.5,51.3,30.10,NE,56,3.5,3.5,49,0.00,,OVC,0.00,WeatherDisplay:10.37,2013-02-02 22:14:00,
2013-02-02 17:19:00,71.1,51.5,30.10,ENE,75,2.3,2.3,50,0.00,,OVC,0.00,WeatherDisplay:10.37,2013-02-02 22:19:00,
2013-02-02 17:24:00,70.4,51.4,30.10,ENE,71,3.5,3.5,51,0.00,,OVC,0.00,WeatherDisplay:10.37,2013-02-02 22:24:00,
2013-02-02 17:29:00,70.1,51.7,30.10,ENE,69,3.5,3.5,52,0.00,,OVC,0.00,WeatherDisplay:10.37,2013-02-02 22:29:00,
2013-02-02 17:34:00,69.8,51.9,30.10,ENE,78,0.0,0.0,53,0.00,,OVC,0.00,WeatherDisplay:10.37,2013-02-02 22:34:00,
2013-02-02 17:39:00,69.6,51.7,30.10,ENE,74,2.3,2.3,53,0.00,,OVC,0.00,WeatherDisplay:10.37,2013-02-02 22:39:00,
2013-02-02 17:44:00,69.3,51.4,30.10,ENE,74,0.0,0.0,53,0.00,,OVC,0.00,WeatherDisplay:10.37,2013-02-02 22:44:00,
2013-02-02 17:49:00,69.1,51.8,30.10,East,80,0.0,0.0,54,0.00,,OVC,0.00,WeatherDisplay:10.37,2013-02-02 22:49:00,
2013-02-02 17:54:00,68.9,52.1,30.10,ENE,78,0.0,0.0,55,0.00,,OVC,0.00,WeatherDisplay:10.37,2013-02-02 22:54:00,
2013-02-02 17:59:00,68.6,51.8,30.10,East,81,0.0,0.0,55,0.00,,OVC,0.00,WeatherDisplay:10.37,2013-02-02 22:59:00,
2013-02-02 18:04:00,68.4,51.6,30.10,East,80,0.0,0.0,55,0.00,,OVC,0.00,WeatherDisplay:10.37,2013-02-02 23:04:00,
2013-02-02 18:09:00,68.1,51.8,30.10,East,80,0.0,0.0,56,0.00,,OVC,0.00,WeatherDisplay:10.37,2013-02-02 23:09:00,
2013-02-02 18:14:00,67.9,52.1,30.10,East,80,0.0,0.0,57,0.00,,OVC,0.00,WeatherDisplay:10.37,2013-02-02 23:14:00,
2013-02-02 18:19:00,67.6,52.3,30.10,East,80,0.0,0.0,58,0.00,,OVC,0.00,WeatherDisplay:10.37,2013-02-02 23:19:00,
2013-02-02 18:24:00,67.3,52.0,30.10,East,80,0.0,0.0,58,0.00,,OVC,0.00,WeatherDisplay:10.37,2013-02-02 23:24:00,
2013-02-02 18:29:00,66.9,52.6,30.10,East,80,0.0,0.0,60,0.00,,OVC,0.00,WeatherDisplay:10.37,2013-02-02 23:29:00,
2013-02-02 18:34:00,66.6,52.3,30.10,East,80,0.0,0.0,60,0.00,,OVC,0.00,WeatherDisplay:10.37,2013-02-02 23:34:00,
2013-02-02 18:39:00,66.3,52.4,30.10,East,80,0.0,0.0,61,0.00,,OVC,0.00,WeatherDisplay:10.37,2013-02-02 23:39:00,
2013-02-02 18:44:00,66.0,52.2,30.11,East,80,0.0,0.0,61,0.00,,OVC,0.00,WeatherDisplay:10.37,2013-02-02 23:44:00,
2013-02-02 18:49:00,65.6,52.2,30.11,East,80,0.0,0.0,62,0.00,,OVC,0.00,WeatherDisplay:10.37,2013-02-02 23:49:00,
2013-02-02 18:54:00,65.3,51.9,30.11,East,80,0.0,0.0,62,0.00,,OVC,0.00,WeatherDisplay:10.37,2013-02-02 23:54:00,
2013-02-02 18:59:00,65.0,52.1,30.10,East,80,0.0,0.0,63,0.00,,OVC,0.00,WeatherDisplay:10.37,2013-02-02 23:59:00,
2013-02-02 19:04:00,64.7,52.2,30.10,East,80,0.0,0.0,64,0.00,,OVC,0.00,WeatherDisplay:10.37,2013-02-03 00:04:00,
2013-02-02 19:09:00,64.3,52.3,30.10,East,80,0.0,0.0,65,0.00,,OVC,0.00,WeatherDisplay:10.37,2013-02-03 00:09:00,
2013-02-02 19:14:00,64.2,52.6,30.12,East,80,0.0,0.0,66,0.00,,OVC,0.00,WeatherDisplay:10.37,2013-02-03 00:14:00,
2013-02-02 19:19:00,63.9,52.7,30.12,East,80,0.0,0.0,67,0.00,,OVC,0.00,WeatherDisplay:10.37,2013-02-03 00:19:00,
2013-02-02 19:24:00,63.7,52.5,30.12,East,80,0.0,0.0,67,0.00,,OVC,0.00,WeatherDisplay:10.37,2013-02-03 00:24:00,
2013-02-02 19:29:00,63.5,52.7,30.12,East,80,0.0,0.0,68,0.00,,OVC,0.00,WeatherDisplay:10.37,2013-02-03 00:29:00,
2013-02-02 19:34:00,63.4,52.7,30.12,East,80,0.0,0.0,68,0.00,,OVC,0.00,WeatherDisplay:10.37,2013-02-03 00:34:00,
2013-02-02 19:39:00,63.1,52.4,30.12,East,80,0.0,0.0,68,0.00,,OVC,0.00,WeatherDisplay:10.37,2013-02-03 00:39:00,
2013-02-02 19:44:00,63.1,52.8,30.12,East,80,0.0,0.0,69,0.00,,OVC,0.00,WeatherDisplay:10.37,2013-02-03 00:44:00,
2013-02-02 19:49:00,62.9,52.6,30.12,East,80,0.0,0.0,69,0.00,,OVC,0.00,WeatherDisplay:10.37,2013-02-03 00:49:00,
2013-02-02 19:54:00,62.6,52.3,30.12,East,80,0.0,0.0,69,0.00,,OVC,0.00,WeatherDisplay:10.37,2013-02-03 00:54:00,
2013-02-02 19:59:00,62.3,52.4,30.12,East,80,0.0,0.0,70,0.00,,OVC,0.00,WeatherDisplay:10.37,2013-02-03 00:59:00,
2013-02-02 20:04:00,62.1,52.2,30.12,East,80,0.0,0.0,70,0.00,,OVC,0.00,WeatherDisplay:10.37,2013-02-03 01:04:00,
2013-02-02 20:09:00,61.8,51.9,30.12,East,80,0.0,0.0,70,0.00,,OVC,0.00,WeatherDisplay:10.37,2013-02-03 01:09:00,
2013-02-02 20:14:00,61.6,52.1,30.12,East,80,0.0,0.0,71,0.00,,OVC,0.00,WeatherDisplay:10.37,2013-02-03 01:14:00,
2013-02-02 20:19:00,61.6,52.1,30.12,East,80,0.0,0.0,71,0.00,,OVC,0.00,WeatherDisplay:10.37,2013-02-03 01:19:00,
2013-02-02 20:24:00,61.6,52.5,30.12,East,80,0.0,0.0,72,0.00,,OVC,0.00,WeatherDisplay:10.37,2013-02-03 01:24:00,
2013-02-02 20:29:00,61.6,52.5,30.13,East,80,0.0,0.0,72,0.00,,OVC,0.00,WeatherDisplay:10.37,2013-02-03 01:29:00,
2013-02-02 20:34:00,61.6,52.5,30.13,East,80,0.0,0.0,72,0.00,,OVC,0.00,WeatherDisplay:10.37,2013-02-03 01:34:00,
2013-02-02 20:39:00,61.5,52.4,30.13,East,80,0.0,0.0,72,0.00,,OVC,0.00,WeatherDisplay:10.37,2013-02-03 01:39:00,
2013-02-02 20:44:00,61.3,52.2,30.12,East,80,0.0,0.0,72,0.00,,OVC,0.00,WeatherDisplay:10.37,2013-02-03 01:44:00,
2013-02-02 20:49:00,61.0,52.3,30.12,East,80,0.0,0.0,73,0.00,,OVC,0.00,WeatherDisplay:10.37,2013-02-03 01:49:00,
2013-02-02 20:54:00,60.7,52.0,30.12,East,80,0.0,0.0,73,0.00,,OVC,0.00,WeatherDisplay:10.37,2013-02-03 01:54:00,
2013-02-02 20:59:00,60.5,51.8,30.13,East,80,0.0,0.0,73,0.00,,OVC,0.00,WeatherDisplay:10.37,2013-02-03 01:59:00,
2013-02-02 21:04:00,60.2,51.9,30.13,East,80,0.0,0.0,74,0.00,,OVC,0.00,WeatherDisplay:10.37,2013-02-03 02:04:00,
2013-02-02 21:09:00,59.9,51.6,30.13,East,80,0.0,0.0,74,0.00,,OVC,0.00,WeatherDisplay:10.37,2013-02-03 02:09:00,
2013-02-02 21:15:00,59.8,52.2,30.12,East,80,0.0,0.0,76,0.00,,OVC,0.00,WeatherDisplay:10.37,2013-02-03 02:15:00,
2013-02-02 21:20:00,59.5,52.3,30.12,East,80,0.0,0.0,77,0.00,,OVC,0.00,WeatherDisplay:10.37,2013-02-03 02:20:00,
2013-02-02 21:25:00,59.5,52.3,30.12,East,80,0.0,0.0,77,0.00,,OVC,0.00,WeatherDisplay:10.37,2013-02-03 02:25:00,
2013-02-02 21:30:00,59.3,52.4,30.12,East,80,0.0,0.0,78,0.00,,OVC,0.00,WeatherDisplay:10.37,2013-02-03 02:30:00,
2013-02-02 21:35:00,59.2,52.3,30.12,East,80,0.0,0.0,78,0.00,,OVC,0.00,WeatherDisplay:10.37,2013-02-03 02:35:00,
2013-02-02 21:40:00,59.0,52.1,30.12,East,80,0.0,0.0,78,0.00,,OVC,0.00,WeatherDisplay:10.37,2013-02-03 02:40:00,
2013-02-02 21:45:00,58.9,52.1,30.12,East,80,0.0,0.0,78,0.00,,OVC,0.00,WeatherDisplay:10.37,2013-02-03 02:45:00,
2013-02-02 21:50:00,58.6,51.8,30.12,East,80,0.0,0.0,78,0.00,,OVC,0.00,WeatherDisplay:10.37,2013-02-03 02:50:00,
2013-02-02 21:55:00,58.4,51.6,30.12,East,80,0.0,0.0,78,0.00,,OVC,0.00,WeatherDisplay:10.37,2013-02-03 02:55:00,
2013-02-02 22:00:00,58.3,52.2,30.12,East,80,0.0,0.0,80,0.00,,OVC,0.00,WeatherDisplay:10.37,2013-02-03 03:00:00,
2013-02-02 22:05:00,58.3,52.2,30.12,East,80,0.0,0.0,80,0.00,,OVC,0.00,WeatherDisplay:10.37,2013-02-03 03:05:00,
2013-02-02 22:10:00,58.1,52.3,30.12,East,80,0.0,0.0,81,0.00,,OVC,0.00,WeatherDisplay:10.37,2013-02-03 03:10:00,
2013-02-02 22:15:00,58.1,52.3,30.12,East,80,0.0,0.0,81,0.00,,OVC,0.00,WeatherDisplay:10.37,2013-02-03 03:15:00,
2013-02-02 22:20:00,58.3,52.8,30.12,East,80,0.0,0.0,82,0.00,,OVC,0.00,WeatherDisplay:10.37,2013-02-03 03:20:00,
2013-02-02 22:25:00,58.3,52.8,30.12,East,80,0.0,0.0,82,0.00,,OVC,0.00,WeatherDisplay:10.37,2013-02-03 03:25:00,
2013-02-02 22:30:00,58.1,52.6,30.12,East,80,0.0,0.0,82,0.00,,OVC,0.00,WeatherDisplay:10.37,2013-02-03 03:30:00,
2013-02-02 22:35:00,58.0,52.5,30.12,East,80,0.0,0.0,82,0.00,,OVC,0.00,WeatherDisplay:10.37,2013-02-03 03:35:00,
2013-02-02 22:40:00,58.0,52.9,30.12,East,80,0.0,0.0,83,0.00,,OVC,0.00,WeatherDisplay:10.37,2013-02-03 03:40:00,
2013-02-02 22:45:00,57.8,52.7,30.11,East,80,0.0,0.0,83,0.00,,OVC,0.00,WeatherDisplay:10.37,2013-02-03 03:45:00,
2013-02-02 22:50:00,57.6,52.5,30.11,East,80,0.0,0.0,83,0.00,,OVC,0.00,WeatherDisplay:10.37,2013-02-03 03:50:00,
2013-02-02 22:55:00,57.6,52.5,30.11,East,80,0.0,0.0,83,0.00,,OVC,0.00,WeatherDisplay:10.37,2013-02-03 03:55:00,
2013-02-02 23:00:00,57.5,52.7,30.10,East,80,0.0,0.0,84,0.00,,OVC,0.00,WeatherDisplay:10.37,2013-02-03 04:00:00,
2013-02-02 23:05:00,57.3,52.5,30.10,East,80,0.0,0.0,84,0.00,,OVC,0.00,WeatherDisplay:10.37,2013-02-03 04:05:00,
2013-02-02 23:10:00,57.2,52.4,30.10,East,80,0.0,0.0,84,0.00,,OVC,0.00,WeatherDisplay:10.37,2013-02-03 04:10:00,
2013-02-02 23:15:00,57.0,52.2,30.10,East,80,0.0,0.0,84,0.00,,OVC,0.00,WeatherDisplay:10.37,2013-02-03 04:15:00,
2013-02-02 23:20:00,56.9,52.1,30.10,East,80,0.0,0.0,84,0.00,,OVC,0.00,WeatherDisplay:10.37,2013-02-03 04:20:00,
2013-02-02 23:25:00,56.9,52.4,30.10,East,80,0.0,0.0,85,0.00,,OVC,0.00,WeatherDisplay:10.37,2013-02-03 04:25:00,
2013-02-02 23:30:00,56.7,52.2,30.09,East,80,0.0,0.0,85,0.00,,OVC,0.00,WeatherDisplay:10.37,2013-02-03 04:30:00,
2013-02-02 23:35:00,56.6,52.1,30.09,East,80,0.0,0.0,85,0.00,,OVC,0.00,WeatherDisplay:10.37,2013-02-03 04:35:00,
2013-02-02 23:40:00,56.5,52.0,30.09,East,80,0.0,0.0,85,0.00,,OVC,0.00,WeatherDisplay:10.37,2013-02-03 04:40:00,
2013-02-02 23:45:00,56.5,52.0,30.09,East,80,0.0,0.0,85,0.00,,OVC,0.00,WeatherDisplay:10.37,2013-02-03 04:45:00,
2013-02-02 23:50:00,56.3,51.8,30.09,East,80,0.0,0.0,85,0.00,,OVC,0.00,WeatherDisplay:10.37,2013-02-03 04:50:00,
2013-02-02 23:55:00,56.2,52.1,30.09,East,80,0.0,0.0,86,0.00,,OVC,0.00,WeatherDisplay:10.37,2013-02-03 04:55:00,